Dewpoint
-21 -8 -6 -9 -8 -7 -7 -9 -11 -10 -8 -9 -10 -10 -7 7 9 15 8 8 6 5 -4 6 8 9 9 9 7 6 6 5 4 -1 -0 4 2 3 5 6 8 8 8 5 4 5 2 1 1
-20 -12 -7 -10 -7 -8 -9 -13 -12 -10 -10 -10 -10 -9 -7 8 9 9 9 7 6 2 -4 4 8 9 9 9 9 7 7 6 6 2 0 3 2 3 4 6 7 8 8 6 3 3 2 1 1
-14 -5 -8 -9 -10 -8 -11 -14 -13 -10 -11 -11 -10 -10 0 9 9 10 10 7 8 -1 -4 3 6 9 9 9 9 8 8 7 7 5 1 2 2 2 3 5 7 7 6 8 3 2 2 2 1
-2 -8 -11 -11 -10 -12 -13 -14 -12 -12 -11 -12 -12 -8 7 8 9 10 9 8 9 7 -1 2 4 8 9 10 9 9 8 8 7 6 3 1 3 3 2 5 5 5 4 4 2 2 1 2 1
-6 -10 -9 -11 -13 -14 -16 -14 -15 -11 -11 -11 -12 -5 7 9 10 11 9 8 9 9 8 1 2 4 8 10 10 10 9 8 8 7 4 1 3 6 4 5 5 3 4 2 2 2 1 1 0
-8 -11 -10 -11 -11 -13 -14 -15 -14 -15 -14 -13 -13 -13 7 8 11 11 10 9 8 8 9 -4 -1 1 4 9 10 10 10 9 8 8 5 2 2 5 4 5 3 1 2 2 2 2 1 -1 -2
-9 -9 -11 -13 -12 -13 -14 -14 -14 -14 -16 -17 -16 -14 8 8 10 12 11 10 8 7 8 -5 -0 2 5 8 10 10 10 9 9 8 6 3 2 3 4 2 -0 -1 1 2 2 1 0 -4 -8
-11 -11 -10 -12 -11 -13 -12 -14 -13 -14 -15 -16 -17 -13 8 10 8 12 12 11 8 7 8 -3 0 5 7 9 10 10 10 10 9 8 7 4 2 3 2 -0 -2 -1 1 1 2 2 0 -4 -5
-6 -7 -8 -11 -12 -11 -11 -11 -13 -12 -12 -13 -14 -4 4 6 6 11 13 13 10 9 9 3 0 3 5 7 9 10 11 10 10 8 7 3 2 2 -1 -3 -3 -1 0 1 2 1 1 -2 -3
-4 -4 -6 -8 -4 -4 -7 -7 -7 -8 -9 -10 -13 -12 -3 -0 7 9 13 13 13 12 11 9 -0 1 3 3 5 10 11 11 10 8 7 4 3 2 -1 -3 -4 -1 -0 1 1 1 1 -1 -1
-7 -6 -9 -6 -4 -5 -6 -7 -8 -7 -5 -6 -7 -6 -7 -7 -7 6 10 13 13 13 13 11 4 2 3 11 -3 4 9 10 10 8 6 4 4 3 5 -2 -4 -2 0 1 1 1 1 2 -2
-5 -8 -8 -5 -7 -10 -12 -13 -12 -10 -8 -7 -7 -6 -6 -5 -6 -4 5 10 13 14 14 13 9 9 9 12 4 1 5 8 8 6 4 4 9 11 9 4 -2 -4 -2 -1 -1 0 1 4 6
-11 -15 -10 -9 -13 -16 -18 -17 -17 -16 -16 -13 -11 -10 -8 -7 -7 -8 -9 -6 10 13 13 13 12 11 9 12 11 4 8 7 4 3 3 4 9 13 11 11 8 -5 -4 -3 -4 -2 -2 1 5
-10 -12 -14 -16 -18 -17 -14 -14 -14 -12 -10 -13 -15 -8 -8 -7 -9 -8 -9 -10 -6 11 13 13 12 13 10 12 12 9 10 9 8 7 3 3 6 13 11 10 10 6 4 5 1 3 2 2 2
-13 -14 -17 -18 -14 -14 -13 -14 -14 -14 -9 -10 -12 -16 -16 -12 -10 -11 -7 -7 -10 -2 12 12 12 13 13 11 13 10 10 10 9 11 11 5 8 12 12 9 10 9 9 9 7 10 9 10 9
-12 -13 -12 -13 -14 -14 -13 -9 -13 -12 -12 -12 -12 -11 -7 -7 -7 -4 -4 -7 -7 -9 6 12 12 13 13 11 14 12 11 10 10 10 12 11 10 12 12 9 10 9 9 9 9 10 10 10 11
-11 -10 -10 -11 -13 -12 -11 -10 -11 -11 -10 -10 -11 -11 -12 -12 -12 -9 -4 -3 -6 -8 -4 11 12 13 13 13 12 14 11 11 11 10 12 12 12 10 13 11 10 10 10 10 10 10 9 10 9
-7 -8 -9 -9 -11 -10 -9 -8 -10 -8 -5 -3 -4 -6 -8 -12 -12 -12 -6 -3 -3 -4 -7 5 12 13 13 13 13 14 13 13 11 12 11 12 11 10 11 12 10 10 10 9 10 9 9 8 9
-7 -7 -8 -10 -12 -9 -10 -10 -2 0 0 -1 -2 -2 -1 -12 -13 -13 -9 -2 -1 -1 -3 8 11 12 13 14 14 13 14 12 13 12 12 12 11 10 6 9 10 11 10 9 8 8 9 9 7
-7 -7 -8 -10 -9 -8 -9 -9 -2 -2 0 0 -0 -0 1 1 -3 -12 -2 -1 0 1 1 -4 8 12 13 13 13 14 14 14 14 13 13 12 12 12 11 7 9 11 10 10 9 9 8 8 9
-8 -5 -5 -5 -6 -9 -11 -5 -1 -2 -1 1 1 1 2 2 2 2 4 5 6 7 4 1 -3 12 12 13 14 14 15 14 14 14 13 13 12 12 12 12 8 9 10 9 8 9 10 9 7
-4 -5 -4 -4 -4 -6 -9 -6 0 -0 1 0 1 2 3 2 2 1 1 2 4 5 9 7 4 8 12 13 13 14 14 13 14 13 14 13 13 13 13 13 12 9 10 11 10 8 8 8 9
-4 -5 -4 -4 -3 -6 -3 -2 2 1 3 2 2 3 3 2 1 1 0 1 2 3 6 9 9 5 10 12 12 13 14 14 13 13 13 14 14 14 13 14 14 13 10 12 11 11 9 8 6
-7 -5 -5 -4 -4 2 -1 -3 5 5 4 2 1 2 3 3 2 -1 -1 -0 0 2 5 4 7 7 11 14 13 12 13 13 14 12 12 12 13 13 13 13 14 14 13 12 12 12 11 9 8
-8 -3 -1 -1 3 4 -2 1 4 4 2 2 1 3 2 2 2 2 0 -1 -4 -1 1 1 4 8 12 13 13 14 13 14 13 12 12 13 13 13 13 14 14 14 13 13 13 12 12 11 11
-7 -5 1 2 1 -1 -1 4 5 2 1 1 2 2 3 3 2 2 2 1 -1 -4 -5 -2 0 1 7 10 12 12 14 14 14 13 12 12 12 12 12 13 13 13 13 14 13 13 12 12 11
-7 -3 -6 1 0 2 2 5 2 1 0 2 1 2 2 3 2 2 2 2 -1 -3 -3 -5 -5 -4 -4 -2 4 8 10 13 13 13 14 14 14 13 13 12 12 12 12 12 12 13 13 13 12
-9 -7 0 2 4 3 4 3 2 3 3 1 1 1 1 3 0 0 1 2 1 0 -3 -4 -5 -6 -5 -5 -4 -3 -1 5 9 10 11 13 14 14 14 14 14 13 13 13 13 13 13 13 13
-6 -5 -1 2 2 2 3 5 -2 -0 0 -1 -1 -2 -3 -1 0 -0 -1 -1 -0 1 -0 -2 -5 -5 -6 -7 -6 -6 -5 -3 -2 4 7 7 8 12 12 13 14 14 14 14 14 13 13 13 13
-9 -6 -5 3 5 3 3 5 -3 -6 -5 -6 -6 -4 -3 -4 -3 -2 -1 -1 -2 -2 -2 -2 -4 -5 -6 -7 -8 -8 -7 -7 -6 -2 -1 -0 7 0 10 11 10 10 13 13 14 14 14 14 14
Wind_Speed
8 5 11 12 6 7 14 16 21 17 6 19 14 7 7 31 13 7 16 9 17 17 26 28 27 26 25 22 20 19 17 16 16 15 15 16 17 19 19 18 16 14 16 15 15 16 16 17 18
6 4 7 9 7 10 12 18 21 3 18 11 9 5 7 23 17 13 14 17 16 19 27 28 28 26 25 23 21 19 17 16 14 14 14 15 16 17 16 15 14 14 14 13 14 15 15 16 17
4 4 7 4 9 12 15 10 10 13 13 12 6 6 6 12 17 8 7 21 17 21 26 28 27 26 26 23 22 19 18 16 14 14 13 14 15 15 15 14 12 12 12 12 13 15 15 15 16
5 10 10 6 14 16 20 11 17 10 11 7 9 5 15 13 8 7 17 20 16 19 25 27 27 26 25 23 23 20 18 16 14 14 13 13 14 14 14 13 11 10 10 12 13 15 15 15 16
11 10 10 11 15 18 18 11 10 12 12 10 8 9 13 13 12 12 17 18 16 18 20 28 26 25 25 24 24 22 19 17 15 14 14 13 13 13 14 13 11 10 10 11 13 13 14 14 14
15 14 11 12 17 17 13 9 11 11 12 7 6 7 14 14 13 10 13 15 16 20 19 27 26 25 24 24 24 23 20 19 17 15 14 13 13 13 13 12 11 10 10 12 13 13 13 12 13
15 11 14 16 15 15 6 9 7 12 14 12 9 8 15 17 12 7 12 13 15 18 18 26 28 26 24 25 25 24 22 20 18 16 14 14 14 14 13 12 11 11 12 12 13 13 12 11 12
17 11 18 16 13 16 7 9 7 8 13 15 9 2 8 7 11 7 10 12 15 16 18 25 27 27 26 25 25 24 23 21 20 18 16 15 15 14 13 12 12 12 13 13 13 13 12 11 11
8 10 12 16 16 10 13 7 3 13 13 12 10 7 11 7 6 5 8 12 15 16 17 21 28 28 27 26 26 25 24 23 22 20 18 17 17 16 14 13 13 13 14 14 14 13 12 12 11
13 10 16 10 14 13 14 12 10 10 12 17 11 7 6 6 5 4 8 13 16 17 19 19 27 28 27 27 27 28 27 26 25 23 22 20 19 17 16 15 15 15 15 15 15 14 14 14 13
11 13 15 12 12 14 13 9 12 12 9 13 20 19 17 10 5 0 4 9 18 19 17 21 27 26 27 22 28 30 30 29 28 26 24 22 19 17 15 17 18 18 18 18 18 17 16 15 14
3 12 5 10 12 15 15 18 17 15 16 19 20 17 16 14 12 9 4 7 12 21 21 21 26 27 27 22 25 31 31 31 30 28 26 25 20 16 19 17 19 19 20 19 19 19 17 17 15
6 9 8 8 12 13 16 18 17 23 20 23 22 23 19 17 16 17 15 11 10 18 25 25 24 28 29 24 25 29 27 31 31 30 29 27 25 21 20 17 15 19 19 20 19 19 19 19 18
7 8 8 8 9 7 12 17 18 21 22 20 17 12 13 15 16 20 19 17 13 14 26 28 26 27 30 27 26 27 25 24 27 27 30 29 27 22 22 21 20 15 17 16 19 16 18 16 19
3 6 9 5 3 2 12 11 10 17 19 9 13 19 21 22 19 18 22 20 17 15 20 31 30 28 28 33 24 26 28 27 27 26 26 28 28 26 24 25 22 19 17 17 15 15 14 17 16
6 4 4 8 6 7 2 11 9 22 20 20 23 24 23 22 24 23 19 23 20 17 19 30 34 32 31 34 26 28 26 29 29 28 27 27 31 29 26 24 25 22 20 21 20 21 21 22 19
8 5 6 8 6 10 10 16 17 23 23 24 25 25 26 25 29 27 25 21 23 23 24 25 34 36 34 32 36 27 32 30 26 30 28 31 30 33 25 27 26 25 26 25 24 23 24 23 22
7 6 7 9 8 10 13 14 17 22 23 26 27 28 29 26 26 28 25 25 25 20 24 28 31 37 36 33 31 30 32 27 33 28 32 30 30 32 33 27 29 26 28 29 27 28 27 26 23
4 7 9 10 10 12 14 13 16 26 28 28 29 31 40 25 23 23 27 22 23 23 20 25 32 33 38 35 35 38 34 37 31 32 29 31 31 29 33 37 31 28 30 30 30 29 28 26 25
6 6 9 8 12 11 11 10 19 24 21 23 31 36 39 45 26 19 17 19 26 26 24 22 20 34 36 39 37 35 36 34 34 36 32 31 33 33 32 34 36 32 33 33 30 28 29 30 24
6 5 8 9 12 13 10 7 19 21 24 27 26 34 37 40 45 46 33 24 19 16 18 16 23 30 35 39 35 37 33 32 35 34 35 34 34 34 34 33 33 36 34 36 34 32 31 32 31
7 7 9 9 9 7 4 4 15 17 18 24 27 29 37 38 42 43 45 41 36 33 19 13 12 7 30 30 34 37 38 39 33 36 34 33 36 37 38 37 34 33 35 35 35 34 37 35 32
7 11 13 11 12 10 11 3 7 12 12 16 21 23 27 33 37 39 40 40 35 33 27 22 13 8 8 30 32 35 39 34 35 34 31 31 34 37 38 38 36 34 35 34 35 36 37 38 38
11 15 17 14 9 2 5 4 3 6 6 10 17 22 25 29 33 35 36 34 37 32 26 29 17 8 5 13 29 31 34 34 27 29 33 33 35 37 36 35 38 37 37 36 34 36 37 38 38
11 13 5 0 2 2 2 7 0 4 10 10 12 15 20 23 29 30 34 42 45 40 32 37 27 18 12 6 8 19 27 33 30 27 29 17 26 31 31 32 37 38 37 36 36 37 36 40 40
6 9 5 4 6 5 4 3 3 5 7 11 10 14 15 14 20 23 27 30 33 37 38 36 37 37 26 19 7 5 16 20 26 30 37 35 28 26 23 31 34 36 35 38 36 40 45 41 44
7 5 6 4 7 7 5 4 5 5 7 7 12 11 13 13 15 18 21 26 31 34 35 38 37 36 38 34 24 20 11 9 14 15 21 18 24 28 30 34 35 34 32 38 37 42 44 44 43
4 6 1 2 4 4 7 6 4 6 2 3 2 1 1 1 11 15 17 19 25 29 33 33 34 36 34 33 32 29 25 17 5 2 5 9 17 18 18 14 25 34 29 24 27 42 41 43 42
2 3 3 2 4 3 4 4 5 6 3 1 3 3 4 2 1 6 14 23 22 23 28 28 32 33 34 33 30 28 27 22 21 14 10 11 12 15 16 15 12 17 24 29 29 30 33 37 36
1 0 2 1 3 2 3 1 1 4 3 4 7 7 1 2 2 2 5 12 15 22 28 23 26 27 30 31 31 28 25 23 22 22 21 14 9 13 10 18 11 10 14 21 29 30 31 32 35
Wind_Direction
288 315 308 289 247 228 257 257 255 276 70 67 52 11 348 55 120 174 149 143 178 172 162 159 164 165 161 158 152 144 137 135 130 132 135 133 134 135 134 131 127 119 124 124 127 128 125 121 118
297 325 298 272 250 257 245 233 269 310 81 75 52 339 16 68 74 114 133 154 194 170 165 161 164 169 166 165 160 155 148 143 138 138 142 139 140 141 141 137 131 126 129 127 129 128 125 121 117
327 336 280 234 236 253 262 341 305 101 83 62 46 357 48 22 71 106 138 159 187 165 168 165 164 173 172 171 168 164 159 155 148 146 148 148 147 148 148 144 139 135 134 137 134 131 129 125 123
298 243 247 256 262 245 258 331 359 19 100 76 52 23 71 41 63 51 137 158 174 166 172 167 167 173 179 178 175 174 170 166 161 157 157 158 155 155 156 155 149 145 142 145 143 139 134 132 131
244 265 242 237 241 258 282 11 7 340 10 29 27 53 81 61 68 107 140 158 156 157 183 171 172 174 182 186 184 180 179 176 173 168 167 170 165 163 164 168 164 158 156 154 152 147 142 140 139
243 234 252 244 240 242 253 36 354 328 321 314 317 288 84 60 73 104 141 160 161 170 188 175 174 177 180 190 190 186 186 184 183 179 175 179 176 175 175 177 176 172 168 164 161 157 152 151 149
252 247 246 261 271 282 103 61 43 331 315 276 2 1 79 59 58 106 145 159 163 192 201 181 177 178 184 191 193 192 192 192 191 188 185 187 185 185 186 187 184 179 175 173 170 167 164 158 153
246 261 268 270 263 270 67 83 32 322 295 325 343 335 73 70 69 106 150 160 170 199 218 189 185 179 183 190 195 197 197 197 197 195 190 193 194 192 193 194 191 184 182 179 178 176 173 167 156
241 264 257 256 259 287 109 87 10 351 334 311 324 73 107 71 47 122 161 175 181 194 219 202 191 187 185 191 195 199 200 202 201 199 196 196 198 197 196 197 195 191 189 186 185 186 185 180 172
225 229 245 27 27 10 28 37 9 337 327 313 310 318 106 83 62 114 169 188 195 204 220 217 197 193 190 195 196 198 200 202 203 203 200 197 201 202 200 202 195 197 195 193 193 194 193 189 186
222 244 284 50 31 354 342 336 340 329 307 302 331 331 336 14 17 238 239 217 211 215 219 220 201 197 194 194 195 199 201 201 203 206 204 199 201 202 203 205 200 198 200 198 199 199 200 198 194
245 267 2 315 6 344 335 324 308 297 292 292 304 305 312 329 323 317 249 245 225 212 207 218 205 200 196 192 205 200 201 204 204 206 207 202 192 211 203 214 210 206 204 205 206 207 206 205 193
245 284 18 351 338 326 321 317 305 297 288 281 288 292 283 292 292 287 270 267 247 226 206 211 214 210 200 186 219 201 204 207 208 209 210 203 191 210 210 212 225 211 210 211 212 215 215 217 205
1 326 311 293 291 338 328 315 305 292 284 271 276 307 290 280 292 286 281 266 249 238 218 211 216 218 208 186 219 201 203 211 210 212 214 205 196 209 215 193 226 221 215 217 216 220 222 227 230
272 276 248 220 53 302 342 292 315 359 355 340 283 286 284 291 294 276 280 287 252 245 235 216 216 218 220 195 210 209 206 210 211 210 221 210 200 202 221 199 218 214 210 230 223 225 230 238 249
213 211 25 132 346 332 59 309 345 338 334 322 320 316 315 313 309 308 295 275 273 248 229 221 215 214 219 211 198 213 206 204 214 204 219 225 207 203 219 213 208 207 217 217 226 214 228 224 231
82 8 0 323 354 352 327 313 325 324 319 313 309 304 298 298 298 298 296 284 270 260 235 220 217 213 219 226 211 213 206 213 211 213 213 224 220 211 215 219 213 214 210 212 224 224 224 230 236
25 356 325 315 356 348 323 321 327 336 351 357 350 334 306 287 285 292 291 296 286 289 253 217 220 214 216 221 226 212 212 215 213 218 215 223 232 225 209 221 212 221 219 219 219 224 229 228 233
335 290 310 4 4 349 317 309 48 25 22 11 0 350 345 295 284 281 291 292 295 298 305 222 211 216 213 215 224 218 219 216 221 214 221 222 233 235 226 219 218 212 228 230 228 232 224 234 235
296 333 12 325 354 321 310 296 57 40 24 17 14 7 356 6 344 279 322 314 303 310 312 263 238 220 214 219 225 221 212 222 221 223 214 221 233 240 241 232 220 221 223 232 228 230 235 227 231
347 30 343 324 324 291 10 63 39 24 26 18 19 11 7 6 8 11 10 1 347 337 308 281 259 230 223 219 218 222 223 221 222 224 223 216 226 236 243 245 235 221 231 235 235 225 232 236 233
292 16 321 308 317 330 353 280 40 25 19 22 16 10 4 6 10 12 9 4 5 359 347 308 259 259 220 221 225 226 220 216 222 219 224 223 222 227 238 246 247 236 223 236 238 239 234 236 232
313 312 285 277 268 295 343 336 356 15 3 2 16 16 9 6 9 13 10 11 6 5 5 356 337 283 235 219 228 230 226 222 220 221 222 221 222 227 235 240 245 245 234 226 239 235 239 238 242
288 310 279 244 255 66 355 0 44 2 336 347 11 18 11 10 13 14 12 13 19 11 10 9 6 343 321 209 217 233 225 226 223 217 223 225 232 236 237 237 236 240 243 237 229 239 236 242 244
1 347 3 183 180 80 201 75 165 19 354 352 359 11 19 19 15 12 6 18 27 26 28 23 20 26 30 100 202 214 229 237 234 227 226 228 227 228 225 235 234 235 239 241 242 236 238 237 242
22 35 13 306 355 337 44 60 83 110 44 19 2 356 1 22 25 18 8 9 17 28 35 37 33 38 38 43 85 127 216 228 237 233 238 246 254 230 227 237 239 235 234 240 239 244 238 238 241
10 30 331 287 280 272 118 67 110 159 66 47 42 23 1 354 5 9 17 9 18 25 29 32 36 41 46 43 42 55 71 174 207 230 233 227 226 229 233 235 238 249 245 241 241 241 242 240 242
60 31 12 335 323 314 118 77 47 63 38 69 219 44 343 268 46 23 18 14 18 19 23 27 28 30 33 37 39 39 40 43 51 164 268 210 216 223 233 244 234 241 236 238 244 243 241 242 247
4 60 68 303 304 312 322 112 57 78 60 305 150 160 346 69 44 47 41 31 17 18 20 21 21 20 19 21 24 29 32 27 33 26 15 3 360 257 249 262 260 228 228 233 242 254 251 249 252
99 193 75 235 48 347 252 112 35 84 126 64 40 130 123 32 154 71 7 24 15 12 12 17 15 16 12 8 10 13 16 19 18 13 30 24 317 355 292 269 309 307 242 237 230 234 242 240 246
Height
1506 1505 1509 1507 1509 1494 1490 1475 1455 1452 1454 1459 1464 1471 1472 1473 1487 1509 1500 1496 1492 1496 1500 1505 1510 1514 1517 1521 1524 1527 1530 1532 1535 1537 1540 1542 1544 1546 1548 1550 1552 1554 1556 1558 1559 1560 1562 1564 1565
1506 1506 1507 1504 1505 1501 1483 1463 1459 1452 1457 1464 1466 1471 1472 1481 1484 1490 1494 1496 1493 1498 1501 1505 1510 1515 1518 1522 1525 1528 1531 1534 1536 1539 1542 1544 1546 1548 1550 1552 1554 1556 1558 1560 1561 1563 1564 1566 1568
1505 1507 1507 1499 1495 1499 1478 1457 1454 1453 1460 1465 1470 1475 1476 1489 1490 1494 1495 1497 1494 1499 1503 1507 1510 1516 1520 1523 1526 1530 1533 1536 1538 1541 1544 1546 1548 1550 1552 1554 1556 1558 1560 1562 1563 1565 1567 1568 1570
1506 1508 1506 1500 1496 1477 1471 1463 1464 1461 1464 1470 1474 1476 1487 1492 1493 1495 1496 1497 1498 1502 1504 1508 1511 1517 1521 1524 1527 1531 1534 1537 1540 1543 1545 1548 1550 1552 1554 1556 1558 1560 1562 1563 1565 1567 1569 1571 1572
1508 1504 1498 1493 1490 1478 1471 1468 1471 1471 1471 1473 1478 1481 1489 1494 1495 1496 1500 1502 1503 1505 1506 1509 1513 1517 1522 1525 1529 1532 1535 1538 1541 1544 1547 1549 1552 1554 1556 1558 1560 1562 1563 1565 1567 1568 1570 1572 1574
1505 1500 1499 1493 1481 1472 1471 1472 1477 1477 1477 1478 1481 1483 1492 1497 1497 1500 1503 1505 1507 1507 1508 1511 1514 1518 1522 1526 1529 1532 1536 1539 1542 1545 1548 1551 1553 1555 1557 1560 1561 1563 1565 1566 1568 1569 1571 1572 1574
1502 1494 1494 1486 1478 1470 1470 1476 1482 1486 1484 1482 1485 1486 1497 1498 1500 1502 1504 1506 1509 1507 1509 1512 1514 1518 1523 1526 1530 1533 1537 1540 1543 1545 1548 1551 1554 1556 1558 1560 1562 1564 1566 1567 1569 1571 1572 1574 1575
1499 1495 1492 1482 1482 1478 1478 1482 1488 1490 1489 1487 1487 1490 1499 1500 1502 1504 1506 1507 1510 1508 1510 1513 1515 1517 1521 1526 1530 1534 1537 1540 1544 1546 1548 1551 1554 1556 1558 1560 1562 1564 1566 1568 1570 1571 1573 1575 1576
1497 1500 1494 1485 1480 1476 1480 1485 1489 1493 1494 1492 1491 1494 1499 1500 1502 1504 1507 1509 1510 1510 1510 1514 1516 1518 1521 1525 1528 1532 1536 1540 1543 1545 1548 1550 1552 1555 1557 1560 1562 1564 1566 1568 1570 1572 1573 1575 1577
1496 1493 1488 1483 1489 1491 1489 1491 1495 1499 1499 1496 1493 1496 1496 1500 1502 1503 1506 1509 1510 1510 1511 1513 1515 1518 1520 1523 1527 1530 1534 1537 1541 1543 1546 1549 1551 1554 1556 1558 1561 1564 1566 1568 1570 1571 1573 1575 1577
1490 1493 1481 1489 1496 1498 1497 1497 1498 1501 1501 1500 1500 1499 1498 1500 1502 1503 1505 1507 1506 1508 1510 1511 1514 1517 1520 1523 1524 1528 1531 1535 1538 1541 1545 1547 1550 1553 1555 1556 1559 1561 1564 1566 1568 1570 1572 1574 1576
1492 1490 1489 1492 1498 1499 1500 1501 1500 1502 1506 1505 1502 1501 1501 1501 1501 1502 1503 1505 1506 1505 1507 1510 1513 1516 1518 1523 1524 1526 1529 1533 1536 1539 1542 1546 1549 1551 1554 1554 1557 1560 1562 1565 1567 1568 1571 1573 1575
1495 1493 1494 1497 1500 1503 1503 1502 1503 1502 1504 1504 1503 1500 1501 1502 1503 1502 1503 1504 1504 1505 1504 1505 1510 1514 1517 1521 1523 1526 1528 1531 1534 1537 1540 1544 1547 1550 1553 1555 1555 1558 1560 1562 1564 1567 1569 1571 1573
1500 1500 1500 1502 1503 1505 1507 1506 1505 1503 1501 1500 1501 1499 1500 1502 1502 1500 1500 1501 1502 1504 1502 1503 1506 1511 1515 1519 1521 1525 1527 1530 1533 1535 1537 1542 1545 1549 1552 1555 1555 1556 1558 1561 1563 1565 1567 1569 1571
1504 1503 1496 1498 1503 1505 1509 1504 1499 1499 1498 1497 1500 1500 1500 1500 1500 1500 1499 1498 1500 1501 1502 1499 1502 1507 1512 1517 1520 1523 1526 1528 1530 1533 1536 1539 1542 1546 1549 1552 1554 1555 1558 1559 1562 1564 1566 1567 1568
1496 1496 1494 1498 1499 1502 1507 1511 1500 1503 1504 1504 1503 1501 1499 1499 1499 1497 1497 1497 1496 1498 1499 1498 1498 1501 1506 1514 1517 1520 1524 1527 1527 1531 1533 1535 1539 1542 1545 1548 1551 1554 1556 1558 1559 1562 1563 1565 1566
1495 1503 1505 1503 1499 1504 1507 1508 1504 1505 1504 1504 1504 1503 1501 1499 1498 1497 1495 1494 1494 1495 1494 1495 1496 1497 1500 1507 1514 1517 1521 1524 1527 1528 1530 1530 1534 1538 1541 1545 1548 1550 1553 1555 1557 1559 1560 1561 1562
1510 1511 1508 1507 1502 1506 1509 1509 1508 1507 1505 1505 1504 1502 1500 1498 1498 1496 1492 1491 1488 1488 1490 1489 1490 1494 1496 1501 1507 1513 1516 1520 1523 1524 1527 1527 1529 1533 1537 1539 1543 1546 1547 1549 1552 1553 1555 1557 1559
1510 1509 1507 1502 1505 1511 1510 1509 1510 1515 1515 1514 1512 1507 1501 1494 1494 1494 1492 1488 1486 1484 1485 1485 1485 1487 1493 1495 1500 1505 1508 1514 1517 1520 1523 1525 1524 1527 1530 1533 1537 1541 1541 1543 1546 1549 1551 1552 1555
1506 1507 1509 1507 1509 1510 1506 1505 1513 1521 1524 1525 1520 1515 1510 1499 1493 1492 1490 1489 1486 1484 1481 1481 1485 1483 1485 1490 1495 1500 1505 1507 1511 1515 1518 1521 1520 1522 1524 1528 1532 1536 1537 1538 1541 1544 1546 1548 1550
1507 1514 1517 1518 1509 1501 1502 1507 1521 1528 1530 1529 1524 1523 1519 1513 1501 1492 1487 1487 1484 1479 1478 1474 1480 1480 1480 1485 1489 1494 1498 1503 1504 1507 1511 1514 1516 1516 1518 1521 1525 1529 1531 1532 1535 1537 1539 1541 1544
1513 1514 1515 1513 1511 1510 1500 1515 1527 1533 1536 1533 1530 1528 1526 1519 1510 1502 1495 1488 1483 1477 1473 1471 1471 1475 1473 1479 1484 1486 1489 1492 1497 1499 1503 1507 1510 1510 1512 1514 1517 1522 1524 1525 1527 1530 1532 1535 1536
1516 1514 1511 1507 1505 1501 1505 1510 1537 1539 1542 1540 1538 1537 1535 1528 1518 1509 1506 1499 1493 1483 1477 1472 1470 1467 1467 1468 1475 1480 1483 1486 1489 1494 1496 1499 1501 1503 1506 1507 1510 1512 1516 1519 1520 1522 1524 1527 1529
1513 1505 1497 1497 1497 1517 1516 1513 1544 1549 1549 1544 1542 1540 1535 1530 1522 1520 1515 1511 1492 1491 1479 1476 1471 1468 1466 1465 1470 1473 1478 1481 1482 1485 1490 1493 1496 1497 1498 1501 1502 1504 1507 1511 1514 1516 1517 1518 1520
1512 1509 1505 1506 1512 1523 1509 1524 1553 1551 1548 1546 1542 1539 1537 1533 1530 1525 1521 1509 1502 1494 1488 1484 1476 1471 1467 1464 1466 1466 1472 1473 1479 1481 1485 1487 1490 1491 1494 1494 1496 1497 1499 1502 1507 1512 1511 1512 1512
1517 1519 1525 1528 1515 1511 1511 1533 1545 1548 1548 1546 1543 1542 1539 1534 1532 1531 1526 1521 1515 1509 1500 1492 1485 1478 1472 1468 1466 1467 1468 1470 1472 1474 1477 1481 1484 1486 1489 1490 1491 1491 1490 1496 1493 1502 1502 1501 1504
1520 1523 1523 1527 1513 1514 1522 1546 1543 1543 1543 1544 1543 1541 1539 1537 1535 1532 1528 1524 1518 1511 1503 1498 1492 1487 1480 1476 1472 1468 1468 1467 1469 1471 1472 1472 1473 1475 1476 1479 1483 1485 1483 1489 1487 1493 1494 1494 1492
1522 1524 1529 1526 1531 1526 1523 1535 1538 1541 1542 1540 1539 1538 1534 1533 1531 1530 1528 1524 1520 1514 1507 1502 1498 1492 1489 1484 1481 1476 1472 1468 1468 1466 1467 1466 1466 1466 1467 1470 1474 1478 1478 1480 1483 1485 1485 1486 1485
1523 1525 1533 1538 1532 1532 1525 1540 1533 1535 1537 1534 1534 1534 1532 1530 1528 1525 1522 1520 1520 1517 1512 1506 1500 1495 1492 1489 1486 1482 1477 1476 1472 1468 1458 1453 1457 1462 1461 1464 1468 1469 1466 1472 1475 1475 1477 1478 1479
1526 1528 1529 1541 1539 1534 1536 1538 1532 1530 1531 1530 1530 1529 1529 1526 1524 1524 1521 1517 1515 1513 1510 1507 1503 1499 1497 1493 1489 1486 1483 1479 1474 1467 1462 1461 1466 1465 1459 1462 1465 1464 1463 1466 1465 1465 1468 1469 1471